[[{"header":{"parameterUnit":"m.s-1","parameterCategory":1,"la1":30.2991,"la2":30.254,"lo1":-89.0895,"lo2":-89.0444,"dy":0.0017,"dx":0.0017,"nx":28,"ny":28,"refTime":"2025-04-01T21:00:00:Z","depth":0,"parameterNumber":2,"parameterNumberName":"U-component_of_WINDS"},"data":[0,0,0,0,0,0,0,0,0,0,0,0,0,0,0,0,0,0,0,0,0,0,0,0,0,0,0,0,0,0,0,0,0,0,0,0,0,0,0,0,0,0,0,0,0,0,0,0,0,0,0,0,0,0,0,0,0,0,-3.624,-3.6241,0,-3.6347,-3.6348,-3.635,-3.6377,-3.6376,-3.6375,-3.6375,-3.6485,-3.6488,-3.6492,0,0,0,0,0,0,0,0,0,0,0,0,0,-3.606,-3.6063,-3.624,-3.6241,-3.6243,-3.6347,-3.6348,-3.635,-3.6377,-3.6376,-3.6375,-3.6374,-3.6484,-3.6488,-3.6492,0,0,0,0,0,0,0,0,0,0,0,0,0,-3.6149,-3.6064,-3.624,-3.6269,-3.6272,-3.6347,-3.6349,-3.635,-3.6377,-3.6376,-3.6375,-3.6374,-3.6482,-3.6487,-3.6493,-3.6546,0,0,-3.6509,-3.6511,0,0,0,0,0,0,0,0,-3.6144,-3.6156,-3.6263,-3.6267,-3.6271,-3.6348,-3.6325,-3.6416,-3.6377,-3.6337,-3.6375,-3.6373,-3.644,-3.6449,-3.6471,-3.6551,-3.6556,-3.6509,-3.6513,-3.6515,-3.6516,0,0,0,0,0,0,0,-3.6138,-3.6152,-3.6282,-3.6265,-3.6269,-3.6277,-3.6288,-3.6343,-3.6393,-3.6341,-3.6343,-3.6355,-3.6442,-3.6466,-3.6474,-3.6558,-3.6509,-3.6514,-3.6517,-3.6519,-3.6687,-3.6688,0,0,0,0,0,0,-3.6127,-3.6146,-3.6279,-3.6286,-3.6204,-3.6281,-3.6294,-3.6324,-3.6392,-3.6402,-3.6356,-3.6356,-3.6457,-3.6468,-3.6478,-3.6544,-3.6515,-3.652,-3.6523,-3.6686,-3.6687,-3.6689,0,0,0,0,0,0,-3.6123,-3.6138,-3.6275,-3.6217,-3.6234,-3.6285,-3.6319,-3.6327,-3.6351,-3.6404,-3.6413,-3.6371,-3.6457,-3.647,-3.6529,-3.6548,-3.6522,-3.6527,-3.6684,-3.6686,-3.6688,-3.6678,0,0,0,0,0,0,-3.6117,-3.6137,-3.6157,-3.6217,-3.6237,-3.6324,-3.632,-3.6329,-3.636,-3.6361,-3.6421,-3.6429,-3.6457,-3.6521,-3.6534,-3.6555,-3.6531,-3.6683,-3.6685,-3.6687,-3.6677,-3.6679,-3.6681,0,0,0,0,0,-3.6111,-3.615,-3.6158,-3.6174,-3.6264,-3.6325,-3.6337,-3.6367,-3.6361,-3.6382,-3.6417,-3.6428,-3.6545,-3.6526,-3.6542,-3.6565,-3.6682,-3.6684,-3.6687,-3.6676,-3.6679,-3.6681,0,0,0,0,0,0,-3.6092,-3.6159,-3.6168,-3.6228,-3.627,-3.6329,-3.6357,-3.637,-3.6415,-3.6414,-3.645,-3.6464,-3.652,-3.6549,-3.6527,-3.662,-3.6613,-3.6619,-3.6599,-3.6602,-3.6605,-3.6596,-3.6536,0,0,0,0,0,-3.6094,-3.6138,-3.6194,-3.6241,-3.6262,-3.6306,-3.6333,-3.6353,-3.6399,-3.6417,-3.6456,-3.65,-3.6546,-3.6576,-3.6622,-3.6682,-3.6695,-3.6705,-3.6707,-3.6709,-3.6713,-3.6747,-3.6752,-3.6698,-3.6698,-3.6698,0,0,-3.61,-3.6142,-3.6167,-3.6239,-3.6274,-3.6318,-3.6321,-3.6367,-3.64,-3.6424,-3.6481,-3.6512,-3.6563,-3.6622,-3.665,-3.6648,-3.6732,-3.6713,-3.6714,-3.6717,-3.675,-3.6755,-3.6759,-3.67,-3.6699,-3.6699,0,0,-3.6133,-3.617,-3.6213,-3.6248,-3.6302,-3.6331,-3.6341,-3.6398,-3.6419,-3.6477,-3.6496,-3.6536,-3.6616,-3.6652,-3.668,-3.6728,-3.674,-3.6742,-3.6754,-3.6786,-3.679,-3.6794,-3.681,-3.6815,-3.6747,-3.6747,-3.6747,0,-3.6134,-3.6201,-3.6234,-3.6279,-3.631,-3.6334,-3.6378,-3.6411,-3.6477,-3.6497,-3.6494,-3.6595,-3.6631,-3.6699,-3.671,-3.6733,-3.6746,-3.6735,-3.6787,-3.6791,-3.6795,-3.6811,-3.6817,-3.6747,-3.6747,-3.6747,-3.6747,0,-3.6199,-3.6245,-3.6273,-3.6336,-3.637,-3.6415,-3.6454,-3.6485,-3.6503,-3.6532,-3.6591,-3.6636,-3.6691,-3.6709,-3.6727,-3.6779,-3.6776,-3.6779,-3.6772,-3.6799,-3.6815,-3.6821,-3.6746,-3.6746,-3.6746,-3.6747,0,0,-3.6221,-3.6302,-3.6312,-3.634,-3.6401,-3.6438,-3.6484,-3.6538,-3.6563,-3.6608,-3.6647,-3.6715,-3.6718,-3.6751,-3.6773,-3.6801,-3.6835,-3.6801,-3.6803,-3.6805,-3.6895,-3.6891,-3.6897,-3.6844,-3.6845,-3.6846,-3.689,0,-3.6261,-3.6343,-3.6374,-3.6442,-3.6484,-3.6508,-3.6548,-3.659,-3.6619,-3.666,-3.6693,-3.6739,-3.6741,-3.6761,-3.679,-3.6824,-3.6853,-3.6822,-3.688,-3.6882,-3.6864,-3.6905,-3.6901,-3.694,-3.6896,-3.6897,-3.6898,0,-3.6318,-3.6363,-3.6434,-3.649,-3.6509,-3.6545,-3.6597,-3.6636,-3.6684,-3.6703,-3.674,-3.676,-3.6809,-3.6801,-3.6869,-3.6847,-3.6873,-3.6894,-3.6896,-3.6901,-3.689,-3.691,-3.6954,-3.6959,-3.6908,-3.6907,-3.6907,0,-3.6326,-3.6405,-3.6458,-3.6481,-3.6548,-3.6572,-3.6601,-3.6649,-3.6679,-3.6725,-3.6745,-3.6796,-3.6824,-3.6863,-3.6897,-3.6888,-3.6962,-3.6956,-3.6979,-3.6978,-3.6992,-3.699,-3.7038,-3.7011,-3.7011,-3.7011,-3.701,0,-3.6366,-3.6409,-3.6462,-3.6494,-3.6542,-3.6578,-3.6625,-3.6656,-3.6698,-3.6737,-3.6762,-3.6798,-3.6841,-3.6882,-3.691,-3.6962,-3.6974,-3.6991,-3.6997,-3.6988,-3.6985,-3.7004,-3.7002,-3.7012,-3.7012,-3.7012,-3.7011,0,-3.6382,-3.642,-3.6479,-3.6537,-3.6553,-3.6586,-3.6636,-3.6669,-3.6699,-3.6748,-3.6761,-3.6809,-3.6859,-3.6898,-3.6963,-3.6981,-3.7036,-3.7044,-3.702,-3.7023,-3.7042,-3.704,-3.7103,-3.7113,-3.708,-3.708,-3.708,0,-3.6405,-3.6438,-3.65,-3.6528,-3.6556,-3.6601,-3.6632,-3.6669,-3.67,-3.6758,-3.6783,-3.6836,-3.6879,-3.6958,-3.6999,-3.7049,-3.7058,-3.7076,-3.7065,-3.7055,-3.7056,-3.7053,-3.7057,-3.7077,-3.7077,-3.7078,-3.7078,0,-3.6441,-3.6458,-3.6501,-3.6552,-3.6588,-3.663,-3.6672,-3.6693,-3.6738,-3.6772,-3.6823,-3.6857,-3.6924,-3.6975,-3.703,-3.706,-3.7076,-3.7081,-3.7089,-3.7079,-3.7063,-3.7071,-3.7022,-3.7079,-3.7079,-3.7079,-3.7079,-3.7079,-3.646,-3.6491,-3.6539,-3.6587,-3.6622,-3.6661,-3.6694,-3.6729,-3.6772,-3.6829,-3.6849,-3.6902,-3.695,-3.7024,-3.7055,-3.7098,-3.7098,-3.7109,-3.7112,-3.7114,-3.7112,-3.7057,-3.7108,-3.7108,-3.7108,-3.7108,-3.7108,0,-3.6496,-3.6529,-3.6572,-3.663,-3.6668,-3.668,-3.6727,-3.6758,-3.6804,-3.6847,-3.689,-3.6949,-3.6999,-3.7044,-3.7096,-3.7121,-3.713,-3.7134,-3.7132,-3.7138,-3.711,-3.7097,-3.7126,-3.7126,-3.7126,-3.7126,-3.7126,-3.7126,-3.6519,-3.6571,-3.6594,-3.6663,-3.6696,-3.6747,-3.6773,-3.6809,-3.6844,-3.6909,-3.695,-3.6979,-3.7023,-3.7079,-3.7125,-3.7137,-3.7155,-3.7157,-3.717,-3.7143,-3.714,-3.7138,-3.7126,-3.716,-3.716,-3.7195,-3.7195,-3.7195]},{"header":{"parameterUnit":"m.s-1","parameterCategory":1,"la1":30.2991,"la2":30.254,"lo1":-89.0895,"lo2":-89.0444,"dy":0.0017,"dx":0.0017,"nx":28,"ny":28,"refTime":"2025-04-01T21:00:00:Z","depth":0,"parameterNumber":3,"parameterNumberName":"V-component_of_WINDS"},"data":[0,0,0,0,0,0,0,0,0,0,0,0,0,0,0,0,0,0,0,0,0,0,0,0,0,0,0,0,0,0,0,0,0,0,0,0,0,0,0,0,0,0,0,0,0,0,0,0,0,0,0,0,0,0,0,0,0,0,5.6875,5.6876,0,5.6976,5.6977,5.6978,5.6948,5.6946,5.6944,5.6942,5.7046,5.705,5.7055,0,0,0,0,0,0,0,0,0,0,0,0,0,5.6658,5.6662,5.6875,5.6876,5.6877,5.6976,5.6977,5.6978,5.6949,5.6946,5.6943,5.6941,5.7044,5.705,5.7055,0,0,0,0,0,0,0,0,0,0,0,0,0,5.6755,5.6663,5.6874,5.6874,5.6875,5.6975,5.6977,5.6979,5.6949,5.6946,5.6943,5.694,5.7042,5.7049,5.7056,5.7163,0,0,5.7078,5.7081,0,0,0,0,0,0,0,0,5.6749,5.6763,5.6873,5.6874,5.6876,5.6946,5.6938,5.704,5.695,5.6921,5.6942,5.6938,5.7015,5.7024,5.705,5.7167,5.7172,5.7078,5.7083,5.7086,5.7088,0,0,0,0,0,0,0,5.6743,5.6758,5.6915,5.6875,5.6876,5.687,5.688,5.6958,5.6984,5.6923,5.6921,5.6934,5.7015,5.7043,5.7052,5.7173,5.7078,5.7084,5.7089,5.7092,5.7387,5.739,0,0,0,0,0,0,5.6735,5.6753,5.6911,5.6918,5.6803,5.6876,5.6888,5.6927,5.6983,5.6989,5.6936,5.6932,5.7033,5.7044,5.7056,5.7187,5.7086,5.7092,5.7096,5.7383,5.7388,5.7392,0,0,0,0,0,0,5.673,5.6749,5.6907,5.6835,5.6854,5.6883,5.6927,5.693,5.6958,5.6993,5.6998,5.696,5.7031,5.7046,5.7137,5.719,5.7095,5.7102,5.7379,5.7385,5.739,5.7448,0,0,0,0,0,0,5.6724,5.6748,5.6788,5.6836,5.6858,5.6986,5.693,5.6935,5.6971,5.6966,5.7017,5.7022,5.7029,5.7127,5.7144,5.7198,5.7107,5.7374,5.7382,5.7388,5.7441,5.7455,5.7466,0,0,0,0,0,5.6717,5.6799,5.679,5.6809,5.6909,5.6989,5.7002,5.7009,5.6975,5.7016,5.7039,5.7021,5.7181,5.7136,5.7156,5.7212,5.7371,5.738,5.7387,5.7436,5.7452,5.7466,0,0,0,0,0,0,5.6756,5.6806,5.6796,5.6896,5.6939,5.6984,5.7036,5.7025,5.7078,5.7072,5.7077,5.7089,5.7183,5.7207,5.7156,5.732,5.7271,5.7284,5.7301,5.7317,5.7329,5.7322,5.7113,0,0,0,0,0,5.6777,5.6837,5.6877,5.6963,5.6985,5.7007,5.7042,5.7044,5.7088,5.7106,5.7135,5.7179,5.724,5.7279,5.7337,5.7444,5.7457,5.7493,5.7505,5.7515,5.7526,5.7588,5.7606,5.7418,5.7418,5.7418,0,0,5.682,5.6854,5.6892,5.6972,5.7005,5.7069,5.7022,5.7091,5.7139,5.7116,5.7205,5.7228,5.7278,5.7379,5.7424,5.7401,5.7581,5.7526,5.7533,5.7539,5.7598,5.7616,5.7632,5.7424,5.7423,5.7422,0,0,5.6931,5.6962,5.7038,5.7073,5.7124,5.7139,5.7157,5.7205,5.722,5.7309,5.7294,5.7351,5.7455,5.7492,5.7524,5.7653,5.7639,5.7671,5.7736,5.7796,5.781,5.7824,5.7872,5.7889,5.7682,5.7682,5.7682,0,5.6978,5.7073,5.7078,5.715,5.7186,5.7169,5.7248,5.7281,5.7348,5.7374,5.7347,5.7479,5.7511,5.7621,5.7653,5.7679,5.7702,5.7666,5.7808,5.7821,5.7833,5.788,5.7897,5.7686,5.7685,5.7685,5.7684,0,5.713,5.7196,5.7252,5.7318,5.7361,5.7435,5.7453,5.7495,5.7494,5.7512,5.7605,5.7643,5.7709,5.7735,5.7733,5.7847,5.7831,5.7806,5.7757,5.7855,5.7899,5.7916,5.7691,5.769,5.7689,5.7688,0,0,5.7268,5.7339,5.7359,5.739,5.7447,5.7499,5.7573,5.7638,5.7676,5.7723,5.7787,5.7877,5.7855,5.7892,5.7894,5.7947,5.805,5.7916,5.7917,5.7941,5.818,5.82,5.822,5.804,5.8044,5.8046,5.8177,0,5.7386,5.7517,5.7525,5.7644,5.7707,5.7693,5.7758,5.7801,5.782,5.7877,5.7898,5.7963,5.7927,5.795,5.8001,5.8026,5.8098,5.8017,5.8102,5.8105,5.8091,5.8242,5.8263,5.8384,5.8193,5.8196,5.8198,0,5.7541,5.7595,5.772,5.7771,5.7797,5.7856,5.7918,5.7972,5.802,5.8031,5.8074,5.807,5.8148,5.8096,5.8205,5.815,5.8185,5.8203,5.8207,5.8217,5.8158,5.8258,5.8422,5.8441,5.8225,5.8223,5.8221,0,5.7633,5.7736,5.7825,5.7852,5.7912,5.7954,5.7981,5.8027,5.8067,5.8121,5.8147,5.821,5.8245,5.8294,5.8308,5.8268,5.8417,5.8366,5.843,5.843,5.8463,5.8461,5.8637,5.8483,5.8482,5.8482,5.8481,0,5.7765,5.7843,5.7868,5.7923,5.8011,5.802,5.8107,5.8131,5.8172,5.8233,5.8224,5.8281,5.8296,5.8356,5.8367,5.8457,5.8472,5.8485,5.8487,5.8487,5.8485,5.8511,5.8504,5.8487,5.8486,5.8485,5.8484,0,5.7882,5.7902,5.7999,5.8048,5.8063,5.8126,5.8168,5.8222,5.8241,5.8318,5.8337,5.8367,5.8438,5.8456,5.8541,5.8548,5.8656,5.8649,5.8639,5.864,5.8704,5.8699,5.8904,5.8933,5.8757,5.8759,5.876,0,5.7966,5.8026,5.8082,5.8123,5.8152,5.8216,5.8258,5.827,5.8313,5.8374,5.8422,5.8491,5.8548,5.8663,5.8692,5.8758,5.8754,5.8822,5.8764,5.8763,5.8758,5.8755,5.8763,5.8833,5.8835,5.8837,5.8838,0,5.8113,5.8121,5.818,5.8244,5.8294,5.8345,5.8393,5.8427,5.8446,5.8495,5.8568,5.8612,5.87,5.877,5.8837,5.8865,5.8856,5.8856,5.8875,5.8876,5.8869,5.8876,5.8672,5.8851,5.885,5.8849,5.8848,5.8848,5.8218,5.8272,5.8321,5.8389,5.8427,5.8473,5.8527,5.8553,5.8614,5.8687,5.869,5.877,5.882,5.8908,5.8941,5.9004,5.8984,5.9011,5.9018,5.9025,5.9032,5.8857,5.9016,5.9016,5.9016,5.9015,5.9015,0,5.8368,5.8399,5.8461,5.853,5.8584,5.857,5.8624,5.867,5.874,5.8787,5.8844,5.8929,5.8998,5.9034,5.9103,5.9147,5.9145,5.9165,5.9163,5.9171,5.9044,5.9022,5.9166,5.9166,5.9166,5.9166,5.9166,5.9166,5.8452,5.8543,5.8557,5.8668,5.8699,5.8777,5.881,5.8853,5.8891,5.8987,5.9045,5.9067,5.9111,5.9183,5.9247,5.9256,5.9283,5.9306,5.9313,5.9194,5.9179,5.9164,5.9144,5.9311,5.9311,5.9434,5.9435,5.9436]}]]